Temp
-7 -7 -7 -7 -7 -7 -7 -7 -7 -7 -7 -7 -7 -7 -7 -6 -6 -7 -7 -7 -7 -7 -7 -7 -7 -7 -7 -7 -7 -8 -7 -7 -8 -9 -8 -8 -8 -8 -8 -8 -9 -8 -8 -8 -7
-7 -7 -7 -7 -7 -7 -7 -7 -7 -7 -7 -7 -7 -7 -7 -7 -7 -7 -7 -7 -7 -7 -7 -7 -7 -7 -7 -7 -7 -7 -8 -8 -8 -9 -8 -8 -8 -7 -9 -8 -8 -8 -8 -8 -8
-7 -7 -7 -7 -7 -7 -7 -7 -7 -7 -7 -7 -7 -7 -7 -7 -7 -7 -7 -7 -7 -7 -7 -7 -7 -7 -7 -7 -7 -8 -7 -8 -10 -9 -9 -8 -7 -7 -8 -8 -8 -9 -8 -7 -8
-7 -7 -7 -7 -7 -7 -7 -7 -7 -7 -7 -7 -7 -7 -7 -7 -7 -7 -7 -7 -7 -7 -7 -7 -7 -7 -7 -7 -7 -7 -7 -8 -7 -7 -7 -8 -8 -8 -8 -8 -9 -8 -8 -8 -8
-7 -7 -7 -7 -7 -7 -7 -7 -7 -7 -7 -7 -7 -7 -7 -7 -7 -7 -7 -7 -7 -7 -7 -7 -7 -7 -7 -7 -7 -7 -8 -7 -7 -7 -7 -8 -7 -7 -7 -8 -9 -9 -8 -7 -8
-7 -7 -7 -7 -7 -7 -7 -8 -8 -8 -8 -8 -8 -8 -7 -7 -7 -7 -7 -7 -7 -7 -7 -7 -7 -7 -7 -7 -8 -8 -8 -8 -8 -7 -7 -7 -7 -7 -7 -8 -9 -7 -9 -10 -8
-8 -8 -8 -8 -8 -8 -8 -8 -8 -8 -8 -8 -8 -8 -7 -7 -7 -7 -7 -7 -7 -7 -7 -7 -7 -7 -7 -7 -7 -8 -7 -8 -7 -8 -8 -8 -7 -7 -7 -7 -8 -7 -7 -9 -8
-8 -8 -8 -8 -8 -8 -8 -8 -8 -8 -8 -8 -8 -7 -7 -7 -7 -7 -7 -7 -7 -7 -7 -8 -7 -7 -7 -7 -7 -7 -7 -7 -8 -8 -8 -8 -7 -8 -8 -8 -8 -8 -7 -8 -10
-8 -8 -8 -8 -8 -8 -8 -8 -8 -8 -8 -8 -8 -8 -7 -7 -7 -7 -7 -7 -7 -7 -7 -7 -7 -7 -7 -7 -7 -7 -7 -8 -8 -8 -9 -7 -7 -8 -8 -8 -8 -8 -8 -9 -10
-8 -8 -8 -8 -7 -7 -7 -8 -8 -8 -8 -8 -8 -7 -7 -7 -7 -7 -7 -7 -7 -7 -7 -7 -7 -7 -7 -8 -7 -8 -9 -10 -10 -9 -10 -9 -8 -8 -9 -9 -10 -9 -8 -9 -12
-8 -8 -7 -7 -7 -7 -7 -7 -7 -7 -7 -7 -7 -7 -7 -7 -7 -7 -7 -7 -7 -7 -7 -7 -7 -7 -8 -8 -8 -8 -9 -9 -9 -10 -10 -11 -9 -9 -9 -10 -11 -11 -9 -9 -12
-7 -7 -7 -7 -7 -7 -7 -7 -7 -7 -7 -7 -7 -7 -7 -7 -7 -7 -7 -7 -7 -7 -7 -8 -7 -8 -8 -8 -8 -9 -9 -8 -8 -9 -10 -11 -10 -9 -11 -11 -10 -11 -10 -9 -9
-7 -7 -7 -7 -7 -7 -7 -7 -7 -7 -7 -7 -7 -7 -7 -7 -7 -7 -8 -8 -8 -8 -8 -8 -8 -9 -9 -8 -9 -9 -9 -9 -9 -10 -11 -11 -10 -11 -10 -11 -11 -9 -9 -10 -10
-7 -7 -7 -7 -7 -7 -7 -7 -7 -7 -7 -7 -7 -7 -8 -8 -8 -8 -8 -8 -8 -9 -9 -9 -9 -9 -10 -10 -10 -10 -11 -12 -10 -10 -11 -12 -11 -11 -11 -11 -10 -10 -10 -10 -10
-8 -7 -7 -7 -7 -7 -7 -7 -7 -8 -8 -7 -7 -8 -8 -8 -8 -8 -9 -9 -9 -9 -9 -9 -10 -10 -12 -12 -12 -12 -13 -12 -13 -13 -13 -10 -12 -11 -11 -12 -12 -11 -11 -10 -10
-8 -8 -8 -7 -7 -7 -8 -8 -8 -8 -8 -8 -8 -8 -8 -8 -9 -9 -9 -9 -9 -9 -10 -10 -10 -11 -11 -12 -13 -13 -13 -13 -13 -13 -13 -11 -12 -11 -11 -11 -11 -11 -10 -10 -10
-8 -8 -8 -8 -8 -8 -8 -8 -8 -8 -8 -8 -8 -8 -9 -10 -9 -9 -10 -9 -9 -10 -10 -10 -11 -13 -13 -13 -13 -14 -14 -13 -13 -13 -13 -12 -12 -11 -12 -12 -12 -12 -11 -12 -11
-9 -8 -8 -8 -8 -8 -8 -8 -8 -9 -9 -8 -9 -9 -9 -10 -10 -10 -10 -11 -11 -11 -10 -11 -11 -13 -12 -13 -12 -13 -13 -13 -12 -12 -12 -12 -12 -12 -12 -11 -12 -11 -11 -11 -11
-9 -9 -9 -9 -9 -9 -9 -9 -9 -9 -9 -9 -9 -10 -10 -10 -10 -11 -11 -11 -12 -11 -11 -12 -12 -14 -13 -13 -13 -13 -13 -13 -12 -13 -13 -12 -12 -12 -12 -12 -12 -11 -12 -12 -11
-10 -9 -10 -9 -9 -9 -9 -9 -9 -9 -10 -10 -10 -10 -11 -12 -12 -11 -11 -12 -13 -11 -11 -12 -12 -14 -15 -14 -14 -14 -14 -14 -14 -13 -13 -14 -12 -13 -12 -12 -12 -12 -12 -12 -12
-10 -9 -10 -10 -10 -10 -10 -10 -10 -10 -10 -10 -11 -11 -11 -11 -12 -12 -12 -12 -12 -13 -12 -13 -14 -13 -14 -15 -16 -15 -15 -15 -14 -14 -14 -14 -14 -13 -13 -13 -12 -12 -12 -12 -13
-10 -10 -10 -11 -11 -11 -11 -10 -11 -11 -10 -11 -11 -12 -12 -12 -12 -12 -12 -13 -12 -12 -13 -14 -13 -14 -15 -15 -17 -16 -15 -16 -15 -15 -14 -14 -13 -14 -14 -13 -13 -13 -13 -13 -13
-12 -12 -12 -12 -12 -12 -11 -11 -11 -12 -12 -12 -12 -12 -12 -12 -12 -12 -13 -14 -13 -13 -14 -14 -15 -14 -15 -16 -17 -16 -16 -16 -15 -15 -15 -15 -14 -15 -14 -14 -13 -13 -14 -14 -15
-12 -12 -12 -12 -12 -12 -12 -12 -12 -13 -12 -12 -13 -13 -13 -13 -12 -13 -13 -14 -13 -13 -14 -15 -15 -15 -16 -17 -17 -17 -16 -16 -16 -15 -15 -15 -15 -15 -14 -14 -14 -14 -14 -15 -15
-13 -13 -13 -13 -13 -13 -13 -13 -13 -13 -13 -13 -13 -13 -13 -13 -13 -13 -14 -14 -13 -13 -14 -14 -15 -16 -17 -17 -17 -18 -18 -18 -18 -17 -16 -16 -16 -16 -16 -14 -15 -16 -16 -15 -15
-14 -14 -14 -14 -14 -14 -14 -14 -14 -14 -13 -14 -14 -14 -14 -14 -14 -14 -14 -15 -16 -14 -13 -14 -15 -16 -17 -17 -17 -17 -17 -17 -18 -17 -17 -17 -16 -17 -17 -16 -16 -16 -16 -16 -16
-13 -14 -14 -14 -14 -15 -14 -14 -14 -14 -14 -14 -14 -14 -14 -14 -14 -14 -14 -15 -15 -16 -16 -15 -15 -16 -17 -17 -18 -19 -18 -19 -18 -18 -19 -19 -19 -17 -16 -16 -17 -17 -18 -18 -17
Height
5880 5881 5881 5881 5882 5882 5883 5883 5883 5884 5884 5884 5885 5885 5885 5886 5886 5887 5888 5890 5890 5891 5891 5893 5894 5895 5897 5899 5900 5902 5904 5907 5910 5917 5923 5922 5915 5918 5916 5919 5917 5913 5903 5913 5917
5880 5880 5880 5881 5881 5881 5882 5882 5883 5883 5884 5884 5884 5884 5885 5885 5886 5887 5888 5889 5889 5890 5891 5892 5893 5894 5895 5897 5899 5900 5902 5905 5909 5916 5916 5919 5911 5914 5912 5915 5916 5913 5899 5906 5906
5879 5879 5879 5879 5880 5880 5881 5881 5882 5883 5883 5883 5883 5884 5884 5885 5886 5887 5887 5888 5889 5889 5890 5891 5892 5893 5894 5895 5897 5898 5901 5902 5905 5905 5908 5907 5907 5909 5909 5912 5914 5911 5901 5902 5905
5878 5878 5878 5878 5878 5879 5880 5880 5881 5882 5882 5882 5883 5883 5883 5884 5886 5885 5886 5887 5888 5889 5889 5890 5891 5892 5893 5894 5894 5896 5898 5899 5901 5901 5903 5904 5904 5905 5905 5909 5909 5902 5899 5895 5900
5876 5876 5876 5877 5877 5877 5878 5879 5880 5880 5881 5881 5881 5882 5882 5884 5884 5884 5885 5886 5887 5888 5888 5889 5890 5891 5892 5892 5893 5894 5895 5896 5897 5898 5899 5900 5900 5901 5901 5904 5905 5897 5875 5871 5896
5874 5874 5874 5874 5875 5875 5876 5877 5878 5878 5879 5880 5880 5881 5882 5883 5883 5884 5884 5885 5886 5887 5887 5888 5888 5888 5889 5890 5891 5891 5892 5893 5894 5895 5895 5896 5897 5896 5898 5898 5899 5898 5895 5893 5892
5872 5872 5872 5872 5873 5874 5874 5875 5876 5877 5878 5879 5880 5881 5882 5883 5883 5884 5885 5885 5886 5886 5887 5887 5887 5887 5887 5887 5887 5888 5888 5888 5890 5891 5891 5892 5893 5894 5894 5894 5895 5890 5894 5895 5888
5871 5871 5871 5871 5871 5872 5873 5874 5874 5875 5876 5878 5879 5880 5881 5882 5882 5883 5884 5884 5885 5885 5885 5885 5884 5885 5885 5884 5884 5884 5884 5884 5886 5885 5885 5885 5888 5890 5890 5890 5890 5887 5886 5888 5885
5870 5870 5870 5870 5870 5871 5872 5872 5873 5874 5875 5876 5877 5877 5879 5879 5880 5881 5881 5882 5882 5882 5882 5881 5881 5881 5881 5881 5881 5880 5880 5879 5880 5881 5880 5878 5881 5883 5883 5884 5885 5883 5883 5883 5881
5870 5869 5869 5869 5870 5870 5871 5871 5871 5872 5873 5874 5874 5876 5877 5877 5877 5877 5877 5877 5877 5876 5876 5876 5875 5875 5876 5875 5875 5875 5875 5876 5875 5878 5874 5873 5874 5876 5877 5878 5876 5878 5877 5879 5879
5870 5869 5868 5869 5869 5869 5869 5869 5871 5871 5870 5871 5871 5870 5871 5872 5872 5871 5872 5871 5870 5871 5870 5869 5869 5869 5869 5867 5867 5868 5869 5867 5869 5872 5874 5869 5865 5868 5871 5872 5871 5867 5871 5873 5870
5869 5868 5868 5868 5867 5867 5867 5867 5867 5868 5867 5866 5866 5866 5866 5866 5866 5865 5865 5865 5863 5863 5861 5862 5860 5862 5861 5860 5859 5859 5858 5859 5861 5862 5861 5861 5859 5860 5864 5863 5861 5861 5860 5862 5859
5868 5867 5866 5865 5865 5865 5864 5864 5863 5862 5862 5863 5862 5861 5861 5860 5859 5857 5859 5856 5855 5855 5854 5852 5854 5851 5850 5850 5852 5851 5849 5850 5851 5852 5852 5853 5850 5851 5856 5851 5850 5851 5853 5853 5853
5865 5864 5863 5863 5863 5861 5861 5860 5859 5858 5857 5860 5858 5857 5856 5854 5854 5851 5850 5850 5849 5847 5845 5846 5846 5844 5844 5842 5841 5842 5843 5840 5841 5842 5841 5847 5842 5843 5847 5841 5840 5844 5841 5841 5841
5862 5861 5860 5859 5858 5858 5858 5856 5855 5855 5853 5851 5851 5850 5849 5848 5846 5845 5844 5841 5843 5840 5840 5841 5838 5837 5836 5837 5836 5833 5833 5833 5833 5834 5834 5834 5835 5838 5840 5834 5831 5828 5832 5834 5835
5857 5856 5856 5855 5854 5853 5852 5851 5850 5850 5846 5845 5844 5843 5842 5840 5840 5837 5838 5836 5834 5832 5831 5831 5831 5831 5831 5831 5828 5826 5824 5824 5822 5824 5822 5824 5828 5828 5833 5833 5824 5822 5817 5817 5824
5852 5851 5850 5849 5849 5848 5846 5846 5846 5843 5841 5838 5838 5837 5835 5834 5829 5828 5829 5825 5825 5823 5821 5821 5821 5820 5821 5819 5820 5819 5819 5815 5814 5813 5810 5818 5820 5820 5818 5819 5807 5812 5806 5804 5812
5846 5845 5843 5842 5842 5841 5840 5839 5838 5836 5832 5831 5831 5828 5827 5826 5823 5823 5819 5821 5819 5812 5810 5813 5815 5817 5811 5810 5810 5808 5808 5802 5798 5798 5804 5812 5809 5807 5801 5811 5801 5798 5798 5799 5797
5838 5837 5836 5835 5834 5833 5832 5831 5828 5827 5826 5823 5822 5819 5819 5818 5816 5814 5812 5810 5810 5805 5804 5804 5804 5801 5801 5800 5800 5801 5799 5795 5788 5787 5788 5792 5799 5791 5796 5800 5794 5788 5780 5785 5784
5829 5828 5828 5827 5826 5825 5824 5822 5818 5817 5817 5814 5813 5812 5810 5810 5806 5802 5800 5802 5798 5792 5792 5794 5790 5791 5791 5789 5790 5787 5786 5789 5788 5780 5774 5779 5788 5784 5784 5780 5781 5783 5774 5772 5775
5821 5818 5822 5817 5816 5815 5815 5812 5810 5806 5809 5806 5804 5802 5801 5799 5798 5797 5794 5793 5786 5783 5783 5782 5779 5782 5781 5781 5780 5778 5773 5771 5774 5772 5766 5769 5772 5771 5771 5774 5752 5766 5765 5764 5763
5810 5809 5807 5808 5807 5805 5803 5801 5801 5797 5793 5796 5794 5792 5790 5788 5787 5784 5781 5779 5774 5773 5774 5770 5767 5767 5769 5768 5767 5760 5761 5761 5760 5760 5761 5757 5755 5761 5764 5759 5758 5755 5749 5746 5743
5802 5798 5799 5796 5795 5793 5789 5792 5789 5787 5785 5782 5780 5780 5779 5777 5775 5773 5769 5766 5763 5761 5760 5760 5756 5755 5756 5758 5751 5751 5748 5747 5747 5749 5748 5749 5753 5750 5753 5747 5738 5748 5738 5739 5733
5792 5791 5787 5785 5786 5783 5779 5777 5776 5774 5771 5771 5770 5768 5766 5764 5762 5761 5757 5754 5751 5748 5751 5749 5746 5746 5745 5747 5743 5743 5740 5738 5735 5738 5737 5737 5739 5739 5738 5738 5740 5737 5730 5729 5725
5778 5777 5777 5776 5772 5769 5769 5767 5765 5763 5760 5756 5757 5757 5754 5752 5750 5747 5745 5743 5738 5738 5737 5737 5736 5736 5734 5735 5734 5733 5732 5730 5726 5725 5726 5728 5727 5723 5725 5727 5728 5727 5721 5721 5722
5766 5764 5762 5762 5761 5759 5755 5754 5751 5750 5749 5746 5744 5741 5739 5739 5737 5733 5733 5731 5728 5725 5722 5726 5727 5725 5723 5724 5723 5722 5722 5722 5721 5721 5719 5717 5717 5715 5715 5714 5714 5717 5712 5709 5710
5750 5749 5748 5749 5745 5743 5742 5740 5737 5736 5735 5733 5730 5728 5726 5724 5721 5720 5721 5720 5719 5717 5713 5714 5713 5714 5714 5714 5713 5712 5715 5712 5713 5713 5713 5711 5710 5706 5706 5704 5703 5704 5703 5703 5702
Wind_Speed
6 6 6 6 6 6 6 6 6 6 6 6 5 4 3 2 2 2 3 3 3 4 5 5 6 7 10 11 13 15 16 13 15 4 12 22 33 18 22 18 21 22 34 25 17
4 5 5 5 5 5 5 5 5 6 6 6 6 6 6 5 4 4 4 4 4 3 5 5 6 8 8 10 11 13 14 12 9 9 18 24 32 19 19 18 18 23 35 27 14
4 4 4 4 4 4 5 5 5 6 5 5 5 6 6 5 5 5 6 6 6 6 5 6 7 8 9 11 12 12 11 15 12 26 29 33 27 17 25 20 17 25 33 32 27
7 7 7 7 7 6 5 5 5 5 5 5 6 6 6 5 5 5 6 6 7 7 8 8 8 8 9 10 11 13 14 18 21 16 21 21 21 19 23 18 16 27 31 24 10
7 7 8 7 7 7 7 7 7 6 6 6 7 7 7 6 5 5 6 5 5 6 7 9 9 10 10 10 11 12 15 17 18 19 17 20 22 21 21 17 25 34 37 10 20
5 5 7 6 6 7 7 6 6 6 5 4 2 1 1 2 2 1 1 1 3 3 5 6 8 9 11 12 14 16 17 18 19 17 18 19 20 23 22 24 31 33 37 39 36
4 5 6 6 7 6 6 6 6 5 4 3 3 2 1 1 2 1 0 1 3 4 6 7 8 8 9 12 15 17 19 21 22 22 23 24 22 20 21 24 25 37 28 30 37
3 4 5 5 6 7 6 6 5 5 6 6 5 5 4 5 4 5 6 7 9 12 13 13 14 14 15 16 17 17 20 19 19 24 23 27 22 22 22 25 25 33 30 25 29
3 2 2 2 3 4 5 6 7 7 8 10 10 11 7 9 11 13 13 15 18 20 20 21 21 21 22 23 24 23 23 24 23 21 24 27 21 21 25 28 28 33 33 29 24
4 4 4 2 1 2 3 5 7 8 10 11 13 15 14 17 18 20 22 24 26 27 27 27 29 29 28 28 28 27 19 21 24 17 28 31 28 23 24 21 33 31 35 28 19
3 4 4 4 3 3 5 7 9 10 12 14 15 18 20 21 24 25 26 29 31 31 32 33 34 31 28 30 30 31 32 35 29 19 24 30 37 24 24 21 35 43 34 33 32
4 4 5 5 6 7 8 9 11 13 15 17 18 20 22 24 25 28 28 30 32 32 34 33 36 31 31 33 33 33 37 38 32 35 35 29 35 32 23 32 43 47 45 36 41
7 8 8 7 8 9 10 10 13 16 18 16 19 20 22 24 25 28 23 27 28 27 27 32 30 32 35 36 32 33 38 38 35 32 30 27 39 36 26 42 46 46 37 38 37
10 10 10 10 10 11 12 14 15 17 20 16 17 19 21 24 24 26 28 27 25 26 27 29 26 29 28 34 35 35 31 34 34 32 36 22 36 33 26 45 49 41 43 43 44
14 14 14 14 14 15 16 17 17 17 21 26 22 22 24 23 26 25 24 28 24 26 26 23 24 26 29 30 30 35 31 32 28 26 30 36 32 30 22 45 52 54 48 46 43
18 17 17 17 18 18 19 20 20 20 25 27 26 25 28 27 25 28 25 27 28 29 27 27 28 29 31 27 33 32 28 31 32 31 32 38 29 33 31 38 48 51 55 51 39
21 20 21 21 21 22 22 22 23 22 27 29 28 27 28 26 33 30 28 33 31 33 34 32 30 26 25 27 28 31 28 37 35 31 37 30 30 31 32 37 56 54 56 56 43
23 23 24 24 26 26 25 25 25 26 30 30 28 31 29 29 33 28 32 29 32 38 38 33 31 22 32 31 36 36 33 40 40 37 31 29 33 46 47 37 47 53 56 51 43
27 27 27 28 29 29 28 27 29 30 30 31 30 31 31 31 35 31 32 33 31 38 41 36 33 30 34 35 41 44 41 42 43 31 42 39 40 34 40 46 54 42 53 52 56
32 32 30 30 30 30 30 28 32 32 30 32 31 32 30 26 33 38 38 32 35 45 45 39 39 34 34 40 38 39 42 45 43 48 41 20 39 44 42 40 46 52 38 51 62
36 38 29 34 32 32 30 31 33 36 30 32 34 34 32 33 33 36 38 35 42 45 43 39 38 36 35 36 34 32 41 50 52 58 61 54 46 42 53 47 40 45 51 58 55
40 39 40 35 35 35 34 35 32 34 37 32 35 35 35 35 36 39 41 38 45 44 35 37 40 38 36 35 32 44 44 43 45 52 52 51 54 52 51 53 62 58 42 37 46
35 38 35 37 36 35 40 36 35 36 36 38 40 38 37 37 39 39 40 40 43 43 38 38 40 40 37 32 33 33 35 35 38 45 47 47 49 50 46 26 33 39 37 42 37
39 38 40 40 38 37 39 40 37 38 41 39 39 40 39 40 40 41 41 39 43 45 37 37 38 38 36 31 36 35 36 37 45 42 43 45 44 45 50 47 37 38 40 33 28
42 41 39 37 40 42 38 40 41 41 42 45 43 40 41 42 41 42 40 39 46 44 41 36 36 34 35 33 33 34 37 41 43 44 41 36 41 44 43 50 57 46 36 45 49
41 42 43 41 39 41 42 41 42 40 42 43 44 46 44 41 41 44 41 39 41 45 47 35 31 32 36 33 34 35 32 31 34 35 36 34 36 35 40 39 46 52 44 37 49
44 43 45 44 45 46 46 47 45 44 45 43 45 46 45 45 47 46 42 40 39 38 43 41 39 33 33 35 34 35 29 29 28 26 24 28 28 34 36 39 37 38 38 42 46
Wind_Direction
238 239 244 243 242 240 243 250 253 257 256 255 252 254 247 235 203 177 177 185 199 213 230 232 226 219 221 223 221 221 229 223 217 222 264 284 278 256 250 244 243 264 262 261 235
243 245 247 247 249 252 253 254 253 252 255 257 258 257 248 242 237 231 213 211 209 217 226 232 232 232 227 226 230 229 229 217 169 259 232 253 257 240 259 244 256 257 278 283 289
262 263 265 262 259 254 253 254 258 256 257 259 256 258 259 247 239 235 234 239 237 243 243 234 233 233 232 233 235 239 236 217 196 236 210 219 252 261 251 250 276 281 283 258 258
274 264 263 264 262 257 253 250 251 256 256 262 262 265 270 264 249 249 250 250 252 255 254 250 243 243 246 248 245 247 242 238 246 260 239 249 255 255 248 232 239 252 248 241 252
269 269 264 261 259 263 259 258 260 259 263 265 269 267 267 272 268 260 250 249 254 256 259 260 262 260 257 257 259 261 256 254 258 256 257 246 247 248 251 221 223 248 267 184 272
271 271 262 257 255 258 260 256 256 261 266 262 245 248 355 83 95 106 212 248 280 288 280 282 275 272 268 265 265 265 265 266 265 264 265 258 251 249 244 244 223 241 251 262 275
276 271 269 263 253 242 243 248 249 248 231 203 194 176 185 71 108 27 53 357 331 320 307 299 291 284 282 277 270 266 268 267 269 269 265 264 258 256 258 253 236 256 255 257 268
305 293 283 268 263 254 249 240 242 238 232 233 237 229 234 259 265 266 274 288 298 300 301 303 299 296 289 283 283 272 278 279 275 273 267 264 268 260 253 258 256 259 269 258 249
27 33 358 315 292 273 252 250 247 239 244 250 259 258 243 270 277 275 271 280 288 290 293 292 292 292 292 290 286 286 284 283 281 275 279 276 268 254 257 254 254 257 264 267 263
21 27 37 36 336 289 277 277 276 264 264 276 279 277 280 278 284 284 283 282 284 287 289 288 284 286 288 287 286 281 283 296 292 277 275 274 276 264 251 243 266 250 255 257 247
342 342 345 350 337 310 289 284 279 277 281 281 279 281 286 284 287 286 285 285 284 284 287 285 284 288 284 278 275 272 265 256 250 234 245 265 276 260 261 233 232 245 257 256 227
305 300 299 297 296 291 287 286 286 283 281 283 285 285 288 288 286 287 289 286 286 287 286 284 287 284 278 273 269 265 266 271 269 252 244 253 262 266 246 239 240 248 256 254 257
296 301 301 295 291 287 283 286 290 289 286 283 286 289 291 293 292 292 291 289 289 288 288 287 290 288 287 281 274 271 273 273 268 257 255 264 261 259 245 246 251 256 268 261 257
292 296 298 298 295 290 278 283 287 286 285 280 291 293 294 292 296 295 297 295 294 293 294 293 298 293 284 284 287 279 269 277 274 262 255 246 263 263 233 249 259 266 263 263 260
288 289 289 289 289 285 281 278 279 285 291 296 293 295 298 298 301 296 297 296 296 293 290 294 289 287 275 281 271 275 273 260 257 254 272 256 241 251 246 252 259 265 267 263 260
287 288 288 287 285 288 283 278 284 287 286 288 291 291 295 291 297 303 301 297 295 293 291 293 291 284 280 262 271 277 280 274 265 263 248 264 254 260 248 256 261 266 270 267 264
285 286 286 284 284 287 284 283 286 286 288 285 294 289 290 293 297 301 301 302 299 296 295 296 302 304 292 266 263 269 265 272 277 256 258 262 257 263 250 237 257 252 260 267 264
279 281 283 283 283 283 282 283 284 285 286 293 290 290 290 291 291 294 295 296 294 291 293 299 297 261 263 257 260 243 235 245 251 240 250 257 253 246 239 236 256 260 258 253 249
277 277 279 281 282 282 283 284 282 283 287 287 286 286 290 290 288 287 292 292 290 287 287 292 291 266 271 267 266 265 255 246 251 254 241 232 233 274 263 244 234 235 241 244 249
279 278 280 280 281 280 281 282 281 283 287 285 283 283 285 282 287 295 297 295 290 292 293 296 289 278 265 264 261 266 260 258 257 268 272 253 251 250 256 244 259 244 243 241 251
284 281 280 281 282 280 280 279 281 284 281 281 280 280 277 279 278 280 282 285 282 282 291 291 284 283 275 263 268 255 260 258 257 258 266 271 263 262 246 253 214 239 249 248 248
284 283 283 280 281 280 278 279 280 280 284 278 278 277 276 276 280 285 286 286 281 286 290 280 285 284 279 276 262 269 270 266 261 259 262 259 265 264 263 255 250 256 228 211 233
282 282 279 284 282 281 280 282 279 279 277 279 280 277 275 276 280 282 281 279 283 285 281 284 282 281 280 279 277 275 279 273 265 263 265 264 264 266 245 253 249 233 227 222 226
284 282 285 283 277 277 280 282 280 277 279 277 276 276 278 279 281 282 280 279 281 280 282 280 278 279 277 270 260 264 266 269 273 271 271 273 270 271 267 251 247 240 223 243 247
283 281 278 277 279 280 274 275 275 277 278 280 278 276 277 277 280 280 279 279 278 280 281 275 278 274 271 268 267 264 261 262 271 281 277 275 277 277 262 258 248 261 240 257 258
282 280 279 278 276 275 276 277 277 279 278 276 275 279 278 278 278 273 272 269 271 284 283 284 276 270 268 266 267 270 270 272 269 267 274 280 274 273 277 266 254 248 257 246 257
286 285 283 282 281 279 278 276 277 280 280 277 275 274 274 274 273 274 278 275 273 271 272 279 278 273 269 267 263 262 270 270 269 274 280 277 277 272 269 268 271 273 269 267 268